Simultaneous Nadir Overpasses (SNOs) Predictions

Prediction of SNOs between AQUA and GOES-15 Satellite Orbit:

Table of predicted SNOs for the next 14.0 days since TLE Epoch: 8/20/2015
Index Date Time (AQUA) AQUA Lat,Lon GOES-15 Lat,Lon Distance(km) Time Diff (sec)
1 08/21/2015 10:31:55 0.26,-134.03 0.39,-134.78 84.69 80
2 08/23/2015 10:19:43 -0.39,-131.08 0.39,-134.72 414.38 80
3 08/23/2015 22:41:06 -0.72,-136.27 -0.39,-134.71 177.34 80
4 08/25/2015 22:28:54 -0.12,-133.30 -0.38,-134.64 151.55 80
5 08/26/2015 10:50:08 1.22,-138.46 0.38,-134.62 436.71 80
6 08/27/2015 22:16:41 0.49,-130.34 -0.38,-134.56 479.86 80
7 08/28/2015 10:37:56 0.56,-135.50 0.38,-134.54 108.73 80
8 08/30/2015 10:25:43 -0.06,-132.54 0.38,-134.46 218.96 80
9 08/30/2015 22:47:06 -1.09,-137.72 -0.37,-134.44 374.18 80
10 09/01/2015 22:34:53 -0.46,-134.76 -0.37,-134.35 46.92 80




NCC Satellite Simultaneous Nadir Overpasses (SNOs) Prediction Service
